Location: Drummondville
(45.8830°N, 72.4830°W)
Time: 09:02:29
(UTC-05:00)

Tiangong 1 - Visible Passes

Search period start: 17 December 2017 00:00
Search period end: 27 December 2017 00:00
Orbit: 274 x 301 km, 42.8° (Epoch: 17 December)

Date Brightness Start Highest point End Pass type
(mag) Time Alt. Az. Time Alt. Az. Time Alt. Az.
20 Dec 3.8 05:45:07 10° SSE 05:45:47 11° SSE 05:46:29 10° SE visible
21 Dec 3.3 05:47:41 11° SSW 05:49:14 16° SSE 05:50:57 10° ESE visible
22 Dec 2.6 05:51:29 17° SSW 05:52:36 23° SSE 05:54:43 10° ESE visible
23 Dec 2.0 05:55:01 23° SSW 05:55:55 31° S 05:58:13 10° ESE visible
24 Dec 1.6 05:58:21 27° SW 05:59:09 37° S 06:01:31 10° ESE visible
25 Dec 1.5 06:01:30 28° SW 06:02:18 39° S 06:04:41 10° ESE visible
26 Dec 1.6 06:04:30 26° SW 06:05:21 36° S 06:07:42 10° ESE visible
